Uitslag Triatlon Eupen promo top 3

# Naam Totaal
1 Territo Joakim 01:09:05 90.69
2 Thijs Nick 01:10:11 88.58
3 Reding François 01:10:34 88.26
4 Teblick Job 01:10:43 88.13
5 Roegiers Jens 01:11:07 87.80
6 Rahn Fabian 01:11:18 87.65
7 Servais Thomas 01:11:52 87.18
8 Colson Philippe 01:11:57 87.11
9 De Dobbelaere Robbe 01:12:28 86.68
10 Kartheuser Francois 01:12:37 86.55
11 ZULIANI Alexandre 01:13:10 86.09
12 Neumann Dominik 01:13:20 0.00
13 Vandermeeren Wout 01:13:23 85.91
14 Van Dongen Edouard 01:13:30 85.82
15 Gelders Dimitri 01:14:11 85.25
16 jadoul chris 01:14:20 85.12
17 Scherpereel Andres 01:14:25 85.05
18 Schaus Michél 01:14:31 0.00
19 Van Pelt Matthias 01:15:34 84.10
20 Van Damme Nicolas 01:15:40 84.02
21 Van De Vel Sara 01:15:50 88.51
22 Waltzing Antoine 01:15:51 83.86
23 Fremalle Benoît 01:16:00 83.74
24 Nauwelaers Gianni 01:16:04 83.68
25 De Witte Eskill 01:16:12 83.57
26 Van Brummelen Cléme 01:16:16 83.52
27 Bruncher Alexandre 01:16:36 83.24
28 Galle Tom 01:16:40 0.00
29 Stienen Astrid 01:16:42 86.62
30 Sander Hartmut 01:16:51 83.03
31 Van Der Most Sophie 01:16:51 86.50
32 Schaerlaeken Soren 01:16:55 82.98
33 MarÉchal Pierre 01:17:18 82.66
34 Defraine Nathan 01:17:20 82.63
35 De Dobbelaere Jan 01:17:24 82.57
36 Marechal Jerome 01:17:35 82.42
37 Montulet Rodrigue 01:18:02 82.05
38 OVERTUS Matthieu 01:18:04 82.02
39 Desart Julien 01:18:32 81.63
40 Vansteenland Brice 01:18:44 81.46
41 Goffinet Arnaud 01:18:47 81.42
42 Pettenberg Patrick 01:18:49 0.00
43 Guidard Pierre 01:18:52 81.35
44 Folscheid Bob 01:18:53 0.00
45 Adams Heleen 01:19:03 84.76
46 Ceyssens Olivier 01:19:21 80.95
47 Lejacques Thibaut 01:19:24 84.48
48 Lombart Martin 01:19:26 80.88
49 Semes Simon 01:19:29 0.00
50 Dannemark Maxime 01:19:39 80.70
51 Bonnivert Arnaud 01:19:57 80.45
52 Lingen Kai 01:20:00 0.00
53 Michiels Manuel 01:20:01 0.00
54 Offizier Hardy E. 01:20:16 80.19
55 Mahieux Xavier 01:20:19 80.15
56 Raspe Jens 01:20:30 80.00
57 Wymmersch Nicolas 01:20:45 79.79
58 Herman François 01:21:22 0.00
59 Vanclooster Lore 01:21:23 82.91
60 Pradella Igor 01:21:24 79.25
61 Lambrechts Rudi 01:21:44 78.97
62 Kielemoes Tim 01:21:56 0.00
63 Vast Bruno 01:21:59 78.76
64 Rezsohazy Romain 01:22:01 78.73
65 SCHEER Pascal 01:22:02 78.72
66 Golard Louis 01:22:05 0.00
67 Veramme Heidi 01:22:10 82.29
68 Kauffman Dimitri 01:22:22 78.44
69 Collinge Jerome 01:22:26 78.39
70 Grimonprez Julien 01:22:29 78.35
71 Delsemme David 01:22:31 78.32
72 Gendebien David 01:22:35 78.26
73 Van Den Broeck Herm 01:22:47 0.00
74 Dekeyser Thomas 01:22:56 77.97
75 ESTE Romain 01:22:59 77.93
76 Sijtsma Thomas 01:23:25 0.00
77 Marenne Arnaud 01:23:31 77.49
78 Wouters Paul 01:23:31 77.49
79 Bredel Peter 01:23:50 0.00
80 Schmits Raphael 01:24:12 76.92
81 Briers Maarten 01:24:15 76.88
82 Servais Vincent 01:24:24 76.75
83 Hanf Alain 01:24:27 76.71
84 Cecere Sandro 01:24:29 76.68
85 Petaccia Laurent 01:24:30 76.67
86 Lingen Tilo 01:24:30 0.00
87 Glesner Pierre 01:24:31 76.66
88 Richelle Olivier 01:24:35 76.60
89 Dierick Nadine 01:24:38 80.34
90 Beaujean Gautier 01:24:48 76.42
91 Brouwers Simon 01:25:00 76.25
92 Marsily Laurent 01:25:04 76.20
93 Diblik Jens 01:25:13 0.00
94 HUGO Markus 01:25:30 75.84
95 Baumer Silke 01:25:32 79.63
96 CABO Jacky 01:25:33 0.00
97 Heirman Britt 01:25:35 79.59
98 D'haene Olivier 01:25:42 75.67
99 Jansen Mike 01:25:48 75.59
100 Kleiber Sascha 01:25:56 0.00
101 Leskens Anne 01:25:57 79.30
102 WIELAND Christoph 01:25:59 75.44
103 Marenne Geoffroy 01:26:01 75.41
104 Coppin Georges 01:26:08 0.00
105 Thomas Claire 01:26:13 79.08
106 Delvaux Pierre-alexandre 01:26:21 75.13
107 HOFFMANN Wolfgang 01:26:23 0.00
108 Bourguignon Pierre 01:26:36 0.00
109 TETZ Dieter 01:26:37 0.00
110 Collignon Ronny 01:26:41 0.00
111 D'hondt Stefan 01:26:51 74.71
112 Heylen Dorien 01:26:56 78.52
113 HERIN Fred 01:26:59 74.60
114 Jottard Christophe 01:27:00 74.59
115 Theissen Stefan 01:27:03 0.00
116 Monteyne Maximilien 01:27:06 0.00
117 Kevers Jean 01:27:07 74.49
118 Platton Maxime 01:27:15 0.00
119 Collienne Andreas 01:27:17 0.00
120 Vanneste Jorn 01:27:17 0.00
121 BREVERS Jean-François 01:27:27 74.22
122 Neef Christina 01:27:33 78.03
123 Blanchy Régis 01:27:37 0.00
124 Hendrick Sylvain 01:27:40 74.04
125 De Wilde Tom 01:27:41 74.02
126 Melotte Joan 01:27:44 73.98
127 Sippel Stefan 01:27:49 73.91
128 Leduc Charles 01:27:55 73.83
129 Broekkamp Vincent 01:28:02 73.73
130 SCHOT Thomas 01:28:04 0.00
131 MÜLLER Anna 01:28:12 77.51
132 Melen Arnaud 01:28:12 73.59
133 Vandenbergh Zjef 01:28:14 73.56
134 Bleyfuesz Stéphan 01:28:15 73.55
135 Welle Mark 01:28:17 0.00
136 Roth Daniel 01:28:18 0.00
137 Bourseau Bertrand 01:28:28 0.00
138 Cordier Pascal 01:28:29 73.36
139 Ysewyn Mario 01:28:30 73.34
140 Goffart Loïc 01:28:43 73.16
141 Stassen Cyrille 01:28:45 73.13
142 MATHIEU Thierry 01:29:05 72.86
143 Moll Mirjam 01:29:07 76.79
144 Peters Audry 01:29:12 72.76
145 Ahn Stephane 01:29:16 72.70
146 Postelmans Kevin 01:29:21 72.64
147 Kubitzki Walter 01:29:27 72.55
148 Van Hoye Peter 01:29:31 72.50
149 Derouaux Virginie 01:29:33 76.44
150 Trautmann Andreas 01:29:38 72.40
151 De Vocht Andries 01:29:38 0.00
152 Harald Gueth 01:29:39 0.00
153 Warnier Thomas 01:29:41 0.00
154 Haex Wim 01:29:44 72.32
155 Thirifays Clément 01:29:53 0.00
156 Wolters Jörg 01:29:53 0.00
157 Pinckers Francis 01:29:57 72.14
158 Ceulemans Romain 01:30:02 72.07
159 Van De Cloodt Danny 01:30:11 71.94
160 Schmidt Florian 01:30:15 0.00
161 Fourneau Tom 01:30:22 0.00
162 Dethier Thomas 01:30:25 71.75
163 Beaujean Olivier 01:30:25 71.75
164 Bodson Laura 01:30:28 0.00
165 Derecogne Julien 01:30:30 71.68
166 GAUDENZ Philipp 01:30:32 0.00
167 AUST Marc 01:30:39 0.00
168 Laval Bernard 01:30:41 71.53
169 Peterges Michael 01:30:44 0.00
170 Lemire Frédéric 01:30:59 0.00
171 Dewalque Yannick 01:30:59 0.00
172 SCHNEIDER Niklas 01:31:02 71.24
173 ALLEREAU Adrien 01:31:03 0.00
174 Pereira Felicia 01:31:05 75.23
175 Boone Niko 01:31:05 71.19
176 Fortemps Grégory 01:31:12 0.00
177 Honoré Bruno 01:31:22 70.96
178 HÜsing Maja 01:31:25 0.00
179 Wolff José 01:31:31 0.00
180 Meens Jelle 01:31:34 70.79
181 Van Den Heuvel Laura 01:31:36 74.82
182 Leroy Xavier 01:31:47 70.61
183 Toussaint Patrick 01:31:48 70.60
184 Fieuw Morgan 01:31:50 0.00
185 Hedebouw haike 01:31:50 74.63
186 Radtke Oliver 01:31:52 0.00
187 Dal Molin Bruno Samuel 01:32:03 0.00
188 KÜpper Judith 01:32:06 0.00
189 SchÖpges Daniel 01:32:09 0.00
190 KARL Julian 01:32:10 0.00
191 VAN ULSEN Sigrid 01:32:12 0.00
192 Cancian Stefan 01:32:17 70.20
193 Hartmann Bianca 01:32:17 0.00
194 Schiewe Norbert 01:32:22 0.00
195 Pauels Johan 01:32:22 70.13
196 Van der Elst Danny 01:32:25 70.09
197 Poncin Olivier 01:32:30 70.02
198 BRUNO Thevissen 01:32:32 0.00
199 Mols Bas 01:32:32 0.00
200 Huberty Arnaud 01:32:33 0.00
201 Bauwens Tom 01:32:38 0.00
202 Fafchamps Eudore 01:32:40 0.00
203 Docquier Philippe 01:32:45 69.81
204 FRENAY Philippe 01:32:46 0.00
205 GrÉgoire Joffrey 01:32:53 0.00
206 Van Beek Thijs 01:32:53 69.70
207 Lempereur Jean-luc 01:32:58 69.63
208 Rassart Jorick 01:33:06 0.00
209 Petaccia Thomas 01:33:10 69.46
210 Andre Cedric 01:33:11 0.00
211 Huberty Aury 01:33:14 0.00
212 Poncelet Jonathan 01:33:22 73.42
213 Reichling Maxime 01:33:24 69.27
214 Molinghen Laurie 01:33:31 73.30
215 Decker Maurice 01:33:36 69.10
216 Maus Dietmar 01:33:40 0.00
217 WACKER Elisabeth 01:33:40 73.18
218 Schmitz Stéphanie 01:33:42 0.00
219 Grimm - Von St.vith 01:33:52 0.00
220 MILZ Dieter 01:33:55 68.84
221 Mathieu Dylan 01:33:57 68.81
222 Vansteenland Pascal 01:33:58 68.80
223 NOPPEN Christoph 01:34:00 68.77
224 Schraepen Kristof 01:34:05 68.70
225 Hibbe Hanna-lena 01:34:07 0.00
226 KRAUTH Raphael 01:34:22 68.46
227 Schunck Marc 01:34:41 68.20
228 Van Rienen Michael 01:34:42 0.00
229 SCHROUBEN Christoph 01:34:46 68.13
230 Scheffert Laurent 01:34:54 68.02
231 Rixhon Xavier 01:34:59 0.00
232 Close Matthieu 01:35:07 0.00
233 Fernandez Angel 01:35:12 0.00
234 Burgers Eric 01:35:17 67.70
235 GROSS Markus 01:35:23 67.62
236 Lennartz Cedric 01:35:31 0.00
237 Collignon Celine 01:35:34 71.68
238 Bieder Jordan 01:35:40 67.38
239 Wohlfeil Dirk 01:35:43 67.34
240 GrÉgoire Yohan 01:35:55 0.00
241 Herion Thomas 01:36:04 67.05
242 Schrauben Bernd 01:36:16 0.00
243 Drooghaag Patrick 01:36:17 0.00
244 Heckmans Benoit 01:36:18 66.86
245 Valentin Johanna 01:36:22 71.04
246 Lefebvre Christel 01:36:22 71.04
247 Dreesen Eric 01:36:26 66.74
248 Vandermeersch Marg 01:36:28 0.00
249 Taton Jean-phicus 01:36:38 66.58
250 Honin Sophie 01:36:49 70.69
251 Duchesne Yves 01:36:50 0.00
252 Moreau Rene 01:36:52 66.38
253 MILZ Annika 01:37:05 70.47
254 Hottois Eric 01:37:05 66.20
255 VERGNION Frédéric 01:37:19 0.00
256 Fontijn Ronald 01:37:23 65.95
257 Vrijens Pierre 01:37:24 65.94
258 WITTORSKI Quentin 01:37:26 0.00
259 Bastin Olivier 01:37:27 65.90
260 MONJOIE Cédric 01:37:29 0.00
261 Scheiff Alina 01:37:33 0.00
262 Ivezic Aleksandar 01:37:35 0.00
263 TAILLET Jonathan 01:37:41 65.71
264 Hiergens Thomas 01:37:41 65.71
265 Godfroid Benjamin 01:37:45 0.00
266 FrÉdÉric Tiphène 01:37:58 69.77
267 Essabri Jérôme 01:38:02 0.00
268 Hucke Anaelle 01:38:04 69.70
269 HALENG Michael 01:38:05 65.37
270 Baivier Jean 01:38:09 0.00
271 Garin Pierre 01:38:10 0.00
272 Huberland Antoine 01:38:11 0.00
273 Iwens Eli 01:38:16 65.22
274 DA VIA Francois-Xavier 01:38:17 65.21
275 Mbemba Pierre 01:38:21 65.15
276 Heiligers Maurice 01:38:23 0.00
277 Scibetta Marc 01:38:25 65.10
278 Masson Florent 01:38:27 0.00
279 Vanderlynden Thomas 01:38:28 0.00
280 Baltus Philippe 01:38:31 65.01
281 Aerts Katrien 01:38:32 69.33
282 Pasteels Pierre 01:38:36 0.00
283 Minot Vincent 01:38:39 64.90
284 Dams Gauthier 01:38:45 0.00
285 Wagener Nicolas 01:38:45 64.82
286 Uhl Lara 01:38:47 0.00
287 Burrion Paul-henri 01:38:55 64.68
288 Huberty Luc 01:38:58 64.64
289 Pannecoucke Gilles 01:39:05 64.54
290 BRAKE Kirsten 01:39:12 0.00
291 De Ruette Anne Sophie 01:39:20 68.69
292 MEYER Catharine 01:39:27 0.00
293 Eisermann Stephan 01:39:27 64.24
294 LELEUX Bertrand 01:39:30 0.00
295 Billiaux Marie 01:39:30 0.00
296 MOTTIN Jean-Philippe 01:39:43 0.00
297 Jobst Robert 01:39:55 63.85
298 Vicaire Alice 01:39:58 68.19
299 Ruiz Enciso Miguel 01:39:58 63.81
300 Gerber Frauke 01:39:59 0.00
301 FRASELLE Gregory 01:40:00 0.00
302 D'hondt Christiane 01:40:14 67.98
303 KUTSCH Thomas 01:40:19 63.52
304 Giltjes Sonja 01:40:20 0.00
305 SCHOLTE Janine 01:40:23 0.00
306 Thomas Guillaume 01:40:52 63.06
307 Matriche Xavier 01:40:55 63.02
308 Lejeune Lucie 01:41:00 0.00
309 Loeber Katharina 01:41:02 67.35
310 Streignard Isabelle 01:41:04 67.32
311 Maurer Claudia 01:41:08 0.00
312 Baijot Amandine 01:41:20 67.11
313 Lambrighs Tim 01:41:24 0.00
314 Montulet Sophie 01:41:37 66.88
315 Petrucci Luca 01:41:45 62.32
316 Olbertz Martin 01:41:51 0.00
317 GREFF Joachim 01:42:09 0.00
318 BOLAND Randy 01:42:28 0.00
319 MÜLLER Thomas 01:42:41 61.55
320 Dahmen Britt 01:42:47 0.00
321 Wennekes Leon 01:42:48 0.00
322 Warnimont Arnaud 01:43:10 0.00
323 Bouziotis Marie 01:43:14 65.60
324 BROCAL Catherine 01:43:29 65.40
325 HAVENITH Benedikt 01:43:30 0.00
326 WARDENBACH Thomas 01:43:31 0.00
327 Boudart René 01:43:41 60.72
328 Wery Sébastien 01:43:49 60.60
329 Lecharlier Katana 01:44:04 64.94
330 Winkeler Lutz 01:44:04 0.00
331 Perings Thomas 01:44:10 0.00
332 Winand Christophe 01:44:18 60.20
333 Vigny Laurent 01:44:35 59.97
334 Schmettkordt Michael 01:44:35 0.00
335 Marenne Frederic 01:44:40 59.90
336 Kessler Martin 01:44:48 0.00
337 Thomas Richard 01:44:48 59.79
338 Bakker Bart 01:44:55 59.69
339 Schiewe Claudia 01:44:57 0.00
340 Moris Philippe 01:44:58 0.00
341 JERUSALEM Andreas 01:44:59 0.00
342 De Wilde Sam 01:45:02 0.00
343 Thys Fabian 01:45:09 59.50
344 Franssen Laurent 01:45:15 0.00
345 Richelle Arnaud 01:45:28 59.23
346 SEPTOW Philippe 01:45:43 0.00
347 Vanfleteren Virginie 01:45:56 63.46
348 LIBERT Joëlle 01:46:03 63.37
349 HASARD Christophe 01:46:17 58.55
350 Loos Rolff 01:46:20 0.00
351 FETT Thomas 01:46:35 0.00
352 Lengelle Cloé 01:46:36 0.00
353 Loeber Jochem 01:46:43 0.00
354 Jennes David 01:47:03 0.00
355 Arnould Morgane 01:47:06 62.54
356 Bronlet Mauro 01:47:11 0.00
357 De Moor Audrey 01:47:14 62.43
358 Hellmann Marco 01:47:30 57.54
359 Fontaine Anne-france 01:47:36 0.00
360 Boulanger Marine 01:47:41 62.08
361 Van Den Berg Martijn 01:47:43 0.00
362 THOMAS Fabrice 01:47:45 0.00
363 Zeimers Richard 01:47:47 0.00
364 Klever Eva 01:47:55 0.00
365 Hernandez Rocha 01:47:57 0.00
366 Hartmann Frank 01:48:05 57.06
367 Vickevorst Luc 01:48:18 56.88
368 Roza Sanchez Alexandre 01:48:28 56.74
369 WillimÈs Joachim 01:48:31 0.00
370 Hedebouw Jilke 01:48:34 61.38
371 Claßen Harald 01:48:42 0.00
372 DEMOULIN Virginie 01:48:44 0.00
373 De Keirsmaeker Elke 01:48:57 61.07
374 Nulens Axel 01:48:59 0.00
375 Reginster Maxime 01:49:01 0.00
376 DUCHENE Pierre-Yves 01:49:10 56.16
377 Eicher Sonja 01:49:20 60.77
378 Thiry Yves 01:49:29 55.89
379 Egyptien Dany 01:49:39 0.00
380 Dujardin Didier 01:49:43 0.00
381 Scherberich Uschi 01:49:45 60.44
382 Boudart Virginie 01:50:24 59.92
383 ARNOULD Jean-Marc 01:50:24 55.13
384 Vaneukem Lise 01:50:28 0.00
385 Noel Coralie 01:50:33 0.00
386 KÖnning Bianca 01:50:34 0.00
387 Boscardin Nadine 01:50:41 0.00
388 Delvaux Colin 01:51:02 0.00
389 Ramakers Stefan 01:51:10 0.00
390 Wagner Anja 01:51:19 59.20
391 Boseret Sebastien 01:51:31 54.20
392 Quaedvlieg Naomi 01:51:33 0.00
393 Demonthy Roger 01:51:42 0.00
394 LiÉgeois Arnaud 01:51:45 0.00
395 Dave Jansen 01:52:14 0.00
396 BÜTTNER Christoph 01:52:20 53.52
397 Kremer Oliver 01:52:20 53.52
398 Bergedieck Rolf 01:52:28 53.41
399 Labeque Regine 01:52:43 53.20
400 LÉonard Steve 01:52:53 0.00
401 De Brouwer Georg 01:53:34 52.50
402 Sommeijer Tine 01:53:41 0.00
403 Terlez Cornelie 01:54:01 57.06
404 Bessems Rob 01:54:06 0.00
405 Grosdent Luc 01:54:11 0.00
406 Marenne Amélie 01:54:21 56.80
407 Mages Angelique 01:54:23 0.00
408 Nolden Doro 01:54:32 0.00
409 Rohen Angelique 01:54:49 56.43
410 SILVESTRE Jennifer 01:54:56 0.00
411 Franzen Michael 01:55:17 0.00
412 Van Drunen Cora 01:55:17 0.00
413 Heinrichs Theo 01:55:31 50.87
414 Francoise Léa 01:55:32 55.86
415 PÉters Marie-julie 01:55:33 55.84
416 MOLKETIN Joerg 01:55:51 0.00
417 Pirlot Nicolas 01:56:25 0.00
418 Messely Nik 01:56:48 0.00
419 Pirard Olivier 01:56:59 49.65
420 Dodemont Céline 01:57:20 54.43
421 Albuquerque Fe 01:57:33 0.00
422 DONATI Natacha 01:58:49 0.00
423 Verwendel Sabine 01:59:20 0.00
424 Rentmeister Maude 01:59:29 52.73
425 DELREZ Natacha 01:59:29 0.00
426 Lipsch Rene 01:59:43 47.38
427 Stassart Michel 01:59:55 47.22
428 VAN DEN OEVER Daphne 02:00:06 0.00
429 Franck Benoit 02:00:39 0.00
430 Ballestero Jean Pierr 02:00:48 0.00
431 Legrand Mélanie 02:00:48 51.69
432 Taquet Roger 02:01:00 46.31
433 Niedeggen Andreas 02:01:22 0.00
434 Wauters Vanessa 02:01:29 51.14
435 Reul Philippe 02:01:58 45.51
436 Woyke Manfred 02:02:03 45.44
437 Moens Axelle 02:02:15 50.54
438 Offermann Frédéric 02:03:29 0.00
439 NEUTELINGS Gregory 02:04:03 0.00
440 Hansen Michael 02:04:03 0.00
441 Bertelli Vittorio 02:04:16 0.00
442 Duchesne Anne 02:05:46 47.75
443 SchrÖder Harald 02:06:23 41.84
444 Vanolande Marc 02:06:40 0.00
445 Arens Andy 02:07:00 0.00
446 Meurisse Bernadette 02:08:05 45.91
447 Bragard Gregory 02:08:15 0.00
448 Robin Nicolas 02:08:20 40.22
449 Vrijens France 02:10:13 44.22
450 Jalet Marie 02:10:24 44.08
451 Nouwynck Caroline 02:10:25 44.07
452 Vanhaute Karen 02:11:33 43.17
453 Romanowicz Agnieszka 02:11:41 43.06
454 Wantiez Sandra 02:11:48 42.97
455 Michielsen Bert 02:11:59 36.68
456 Janssen Rémy 02:12:17 0.00
457 Janssen Patrick 02:12:17 0.00
458 Heinrichs Conny 02:16:04 39.09
459 Fayt Emmanuelle 02:18:48 0.00
460 Wilborts Ama 02:20:53 0.00
461 KÉvers-leclercq 02:22:52 0.00
462 Hartnett Margaret 02:24:27 0.00

Reacties

  • Nog geen reacties beschikbaar